West Porterville
DateTemperatureDew Point
05/07 - 07:30 PM76.1°63.1°
05/07 - 07:15 PM77.9°63.3°
05/07 - 07:00 PM79.4°62.7°
05/07 - 06:45 PM80.3°62.0°
05/07 - 06:30 PM81.4°61.6°
05/07 - 06:15 PM82.3°62.2°
05/07 - 06:00 PM83.2°61.6°
05/07 - 05:45 PM83.8°61.1°
05/07 - 05:30 PM84.4°61.2°
05/07 - 05:15 PM84.8°60.9°
05/07 - 05:00 PM85.1°60.9°
05/07 - 04:45 PM85.2°61.1°
05/07 - 04:30 PM85.8°61.3°
05/07 - 04:15 PM86.0°61.2°
05/07 - 04:00 PM86.0°61.8°
05/07 - 03:45 PM86.0°61.4°
05/07 - 03:30 PM86.0°61.3°
05/07 - 03:15 PM86.1°61.7°
05/07 - 03:00 PM86.0°61.3°
05/07 - 02:45 PM86.3°61.2°
05/07 - 02:30 PM86.0°61.5°
05/07 - 02:15 PM86.0°61.9°
05/07 - 02:00 PM85.4°61.6°
05/07 - 01:45 PM85.2°60.6°
05/07 - 01:30 PM84.8°60.6°
05/07 - 01:15 PM84.5°60.9°
05/07 - 01:00 PM83.8°60.6°
05/07 - 12:45 PM83.4°60.5°
05/07 - 12:30 PM82.5°60.7°
05/07 - 12:15 PM82.0°59.6°
05/07 - 12:00 PM81.7°59.6°
05/07 - 11:45 AM80.8°59.9°
05/07 - 11:30 AM80.0°59.7°
05/07 - 11:15 AM79.1°59.9°
05/07 - 11:00 AM78.5°59.8°
05/07 - 10:45 AM77.6°59.6°
05/07 - 10:30 AM76.4°58.4°
05/07 - 10:15 AM75.5°58.5°
05/07 - 10:00 AM74.6°58.1°
05/07 - 09:45 AM73.5°58.4°
05/07 - 09:30 AM72.2°58.1°
05/07 - 09:15 AM70.6°58.0°
05/07 - 09:00 AM69.2°57.8°
05/07 - 08:45 AM67.6°57.7°
05/07 - 08:30 AM65.7°57.2°
05/07 - 08:15 AM63.7°57.1°
05/07 - 08:00 AM60.9°57.9°
05/07 - 07:45 AM58.8°58.5°
05/07 - 07:30 AM57.8°57.5°
05/07 - 07:15 AM56.4°56.0°
05/07 - 07:00 AM55.2°54.6°
05/07 - 06:45 AM54.1°53.2°
05/07 - 06:30 AM53.6°52.5°
05/07 - 06:15 AM53.3°52.1°
05/07 - 06:00 AM53.3°52.0°
05/07 - 05:45 AM53.3°52.1°
05/07 - 05:30 AM53.3°52.0°
05/07 - 05:15 AM53.3°51.9°
05/07 - 05:00 AM53.5°52.0°
05/07 - 04:45 AM53.6°52.1°
05/07 - 04:30 AM53.8°52.0°
05/07 - 04:15 AM54.3°52.2°
05/07 - 04:00 AM54.6°52.2°
05/07 - 03:45 AM55.2°52.6°
05/07 - 03:30 AM55.8°53.1°
05/07 - 03:15 AM56.1°53.4°
05/07 - 03:00 AM56.4°53.6°
05/07 - 02:45 AM56.9°53.9°
05/07 - 02:30 AM57.3°53.8°
05/07 - 02:15 AM57.3°54.2°
05/07 - 02:00 AM56.9°54.2°
05/07 - 01:45 AM57.2°54.2°
05/07 - 01:30 AM57.5°54.5°
05/07 - 01:15 AM57.8°54.8°
05/07 - 01:00 AM58.0°54.9°
05/07 - 12:45 AM57.8°55.0°
05/07 - 12:30 AM57.4°54.9°
05/07 - 12:15 AM57.4°55.1°
05/07 - 12:00 AM57.0°54.9°
05/06 - 11:45 PM57.2°55.0°
05/06 - 11:30 PM57.2°54.8°
05/06 - 11:15 PM57.4°54.8°
05/06 - 11:00 PM57.6°54.7°
05/06 - 10:45 PM58.1°55.2°
05/06 - 10:30 PM58.5°55.4°
05/06 - 10:15 PM58.9°55.7°
05/06 - 10:00 PM59.4°56.0°
05/06 - 09:45 PM60.0°56.3°
05/06 - 09:30 PM60.5°56.6°
05/06 - 09:15 PM61.2°56.9°
05/06 - 09:00 PM62.0°57.0°
05/06 - 08:45 PM62.8°56.9°
05/06 - 08:30 PM63.8°56.8°
05/06 - 08:15 PM64.9°57.3°
05/06 - 08:00 PM66.5°57.2°
05/06 - 07:45 PM68.2°57.3°
05/06 - 07:30 PM69.9°57.1°
05/06 - 07:15 PM71.4°56.1°
05/06 - 07:00 PM72.6°55.8°
05/06 - 06:45 PM73.6°55.1°
05/06 - 06:30 PM74.4°55.1°
05/06 - 06:15 PM75.3°55.7°
05/06 - 06:00 PM75.9°55.4°
05/06 - 05:45 PM76.4°55.1°
05/06 - 05:30 PM76.9°55.3°
05/06 - 05:15 PM77.3°56.0°
05/06 - 05:00 PM77.6°55.3°
05/06 - 04:45 PM78.1°55.7°
05/06 - 04:30 PM78.2°55.6°
05/06 - 04:15 PM78.3°55.2°
05/06 - 04:00 PM78.4°55.6°
05/06 - 03:45 PM78.6°55.4°
05/06 - 03:30 PM78.0°55.6°
05/06 - 03:15 PM78.4°55.1°
05/06 - 03:00 PM78.5°55.9°
05/06 - 02:45 PM77.9°55.6°
05/06 - 02:30 PM78.0°55.8°
05/06 - 02:15 PM78.0°56.0°
05/06 - 02:00 PM77.8°55.7°
05/06 - 01:45 PM77.7°55.5°
05/06 - 01:30 PM77.2°55.7°
05/06 - 01:15 PM76.4°55.0°
05/06 - 01:00 PM75.9°54.7°
05/06 - 12:45 PM76.2°56.2°
05/06 - 12:30 PM75.5°55.7°
05/06 - 12:15 PM75.4°55.6°
05/06 - 12:00 PM74.6°55.3°
05/06 - 11:45 AM73.2°54.9°
05/06 - 11:30 AM72.9°54.5°
05/06 - 11:15 AM71.3°54.2°
05/06 - 11:00 AM71.0°54.2°
05/06 - 10:45 AM71.0°54.9°
05/06 - 10:30 AM70.2°54.8°
05/06 - 10:15 AM69.0°55.3°
05/06 - 10:00 AM68.4°55.2°
05/06 - 09:45 AM67.6°54.7°
05/06 - 09:30 AM66.5°54.4°
05/06 - 09:15 AM65.3°53.9°
05/06 - 09:00 AM63.9°53.5°
05/06 - 08:45 AM62.4°53.4°
05/06 - 08:30 AM60.7°53.5°
05/06 - 08:15 AM58.7°53.5°
05/06 - 08:00 AM56.3°54.2°
05/06 - 07:45 AM54.6°54.5°
05/06 - 07:30 AM53.6°53.5°
05/06 - 07:15 AM52.1°52.0°
05/06 - 07:00 AM50.9°50.6°
05/06 - 06:45 AM49.8°49.4°
05/06 - 06:30 AM48.6°48.0°
05/06 - 06:15 AM47.9°47.0°
05/06 - 06:00 AM47.4°46.4°
05/06 - 05:45 AM47.5°46.3°
05/06 - 05:30 AM47.6°46.1°
05/06 - 05:15 AM48.1°46.5°
05/06 - 05:00 AM48.6°47.1°
05/06 - 04:45 AM48.9°47.5°
05/06 - 04:30 AM49.3°48.0°
05/06 - 04:15 AM49.7°48.5°
05/06 - 04:00 AM50.0°48.9°
05/06 - 03:45 AM50.0°49.1°
05/06 - 03:30 AM50.2°49.2°
05/06 - 03:15 AM50.0°49.0°
05/06 - 03:00 AM49.9°48.8°
05/06 - 02:45 AM49.9°48.6°
05/06 - 02:30 AM50.1°48.7°
05/06 - 02:15 AM50.5°49.3°
05/06 - 02:00 AM50.6°49.4°
05/06 - 01:45 AM50.4°48.9°
05/06 - 01:30 AM50.5°48.6°
05/06 - 01:15 AM50.7°48.5°
05/06 - 01:00 AM51.1°48.8°
05/06 - 12:45 AM51.4°49.3°
05/06 - 12:30 AM51.7°49.7°
05/06 - 12:15 AM52.1°50.0°
05/06 - 12:00 AM52.5°50.5°
05/05 - 11:45 PM52.7°50.7°
05/05 - 11:30 PM52.8°50.7°
05/05 - 11:15 PM53.2°50.7°
05/05 - 11:00 PM53.7°50.9°
05/05 - 10:45 PM54.6°51.5°
05/05 - 10:30 PM55.2°51.8°
05/05 - 10:15 PM56.0°52.2°
05/05 - 10:00 PM56.9°52.8°
05/05 - 09:45 PM57.9°53.4°
05/05 - 09:30 PM59.0°53.7°
05/05 - 09:15 PM60.2°53.9°
05/05 - 09:00 PM60.9°53.8°
05/05 - 08:45 PM61.4°53.8°
05/05 - 08:30 PM62.1°53.8°
05/05 - 08:15 PM62.8°53.3°